GFSMA_700_rhum_204.txt.gz
RH
29 31 30 20 8 5 6 15 15 18 14 11 14 16 21 25 29 30 26 23 28 36 39 46 76 89 98 97 99 99 87 80 67 63 72 60 59 66 72 74 78 79 77
30 32 34 35 24 9 6 7 13 19 13 11 13 15 18 22 26 27 24 21 22 29 31 32 58 82 76 82 88 89 76 59 47 41 43 37 46 63 67 66 69 77 78
36 36 36 34 36 19 7 5 10 19 15 13 14 15 16 19 23 25 22 18 17 19 23 26 28 32 30 30 29 28 29 27 28 23 17 14 13 15 36 56 59 62 68
38 37 36 36 41 38 11 4 7 18 19 17 16 18 16 18 21 23 24 20 16 14 14 14 14 14 14 15 15 14 12 10 10 9 10 11 11 11 11 11 13 30 59
39 36 36 38 42 47 19 5 5 14 19 19 20 20 20 18 17 21 23 24 22 20 16 12 12 13 12 11 11 12 12 12 13 14 15 15 16 16 15 14 13 12 16
35 31 30 33 42 50 39 10 5 8 18 14 19 21 20 25 22 20 22 23 24 24 20 18 18 17 16 16 16 16 15 14 14 14 15 16 17 17 18 19 19 20 20
37 32 30 35 46 54 54 16 8 4 15 13 13 17 20 21 23 22 22 22 22 22 21 20 21 22 21 19 15 14 13 12 11 12 16 18 20 20 22 23 22 20 21
38 35 31 37 50 56 57 38 10 6 6 11 10 10 15 18 19 20 21 21 21 21 21 22 20 15 13 15 15 13 12 12 12 12 12 15 18 20 23 24 25 24 24
34 29 29 38 48 56 58 58 18 10 5 5 8 9 10 15 18 19 20 21 22 23 20 17 15 15 14 14 13 12 11 10 9 7 7 8 11 13 15 16 16 16 16
31 23 26 37 48 53 56 58 49 12 10 6 5 6 9 10 11 16 19 20 22 21 19 17 15 14 13 13 13 12 11 10 9 8 8 7 7 8 8 9 9 10 9
28 21 26 36 46 52 54 57 58 47 14 10 7 6 6 7 9 9 10 12 15 18 18 17 16 15 14 13 12 12 12 11 10 9 8 8 7 7 7 7 7 7 7
29 22 27 36 44 50 54 55 59 60 57 32 13 11 8 6 6 7 9 9 9 10 11 13 13 13 13 13 13 12 13 13 12 11 10 9 8 8 7 7 7 7 7
32 27 24 30 37 46 52 56 59 62 64 62 58 46 26 14 11 8 7 7 7 8 9 9 9 9 10 10 11 12 12 12 12 12 12 12 11 10 9 8 8 8 8
31 30 27 25 28 38 46 51 56 59 62 63 62 63 63 62 60 56 46 32 18 12 10 8 8 7 8 8 8 9 9 9 10 11 12 12 12 12 11 11 10 9 9
32 30 28 28 27 29 34 41 45 49 52 55 59 63 64 62 60 59 59 60 60 60 61 57 50 39 26 16 10 8 8 8 8 8 8 7 8 8 9 10 11 11 10
34 33 33 31 31 31 33 37 40 42 46 47 47 49 49 48 48 47 46 45 44 43 43 47 47 48 51 53 54 52 48 38 25 15 10 9 8 8 8 8 8 8 9
36 36 36 35 34 33 33 33 33 34 38 42 43 47 48 44 46 45 42 42 40 39 36 42 41 42 42 42 44 44 44 48 51 51 46 39 30 19 12 9 9 9 9
34 33 34 35 36 38 40 41 41 42 43 44 46 46 48 45 44 43 41 39 38 36 31 31 37 41 38 38 39 41 41 39 39 42 47 51 52 44 32 21 13 10 9
34 33 34 33 33 34 35 36 38 40 41 43 46 48 48 49 48 47 45 42 40 37 34 32 30 27 25 26 29 31 35 39 40 40 40 41 41 43 46 44 36 29 19
38 36 35 35 34 34 36 39 41 43 45 46 47 48 50 51 51 51 49 47 44 40 37 35 34 32 30 28 27 26 26 26 26 26 28 32 39 43 42 39 39 38 35
39 40 39 39 39 39 38 39 42 46 49 52 54 56 58 58 58 58 58 58 57 56 56 56 56 56 55 52 48 45 42 36 29 27 24 24 26 28 36 41 40 37 36
43 45 45 44 42 41 42 44 48 53 57 59 61 63 64 66 69 71 73 72 70 68 69 68 68 66 54 46 36 25 20 21 26 23 23 18 16 18 25 32 39 43 43
55 54 54 53 49 52 56 58 59 56 58 62 64 65 65 68 68 69 71 73 75 76 76 74 71 58 48 30 24 21 20 23 24 26 26 27 24 20 17 15 14 18 28
64 63 61 56 55 69 70 64 60 58 62 66 65 64 65 68 70 67 66 67 68 66 63 60 57 48 42 34 29 26 24 22 23 25 28 27 28 29 30 26 21 18 15
67 67 65 59 65 63 66 69 72 73 71 61 47 38 34 30 26 26 26 26 26 27 26 26 26 26 26 25 24 24 26 32 40 49 45 37 29 25 24 26 31 26 20
71 72 62 64 60 54 66 64 59 52 46 42 35 37 38 39 39 39 39 38 39 38 32 31 30 29 26 25 21 18 17 19 22 21 22 27 25 31 33 28 27 33 32

GFSMA_700_rhum_210.txt.gz
RH
24 23 26 30 34 36 35 34 33 34 32 8 7 14 13 10 11 11 12 13 15 17 21 24 27 28 33 52 99 100 100 100 100 99 98 99 91 77 75 76 75 77 77
20 20 23 25 33 36 34 32 30 33 35 10 6 14 16 12 11 11 12 14 16 18 21 23 28 27 28 42 60 93 97 98 99 100 100 99 94 80 77 73 74 74 75
27 30 31 33 38 36 31 28 27 29 37 15 5 14 17 14 14 12 13 15 19 23 23 22 27 36 34 39 46 73 68 90 100 100 100 100 100 92 88 79 67 68 70
33 33 35 41 40 37 34 31 29 36 44 19 4 15 17 16 15 14 15 17 22 26 24 21 22 32 41 38 38 46 46 82 99 86 96 98 88 70 64 50 42 64 71
38 41 43 43 42 40 37 33 32 38 49 19 5 13 17 16 16 17 19 20 23 26 26 26 21 22 22 24 24 37 37 62 74 71 61 40 42 42 33 21 16 15 17
40 43 44 43 42 39 33 30 34 42 49 32 6 8 17 14 17 19 20 22 22 24 26 27 27 24 20 19 18 24 23 47 35 36 23 16 14 13 12 11 12 11 11
41 44 45 45 42 35 27 27 37 49 54 46 11 5 13 14 14 17 19 21 22 23 23 24 24 24 23 22 20 22 20 32 28 31 24 19 19 20 18 18 18 17 17
43 45 45 42 37 30 21 28 41 51 54 54 17 7 5 9 12 15 18 20 22 23 24 26 27 26 26 27 24 24 28 26 24 20 19 16 16 17 16 17 17 18 18
40 41 36 34 35 22 23 33 45 51 54 56 45 11 6 5 8 12 16 20 22 24 26 27 26 26 23 21 21 22 19 19 19 18 14 14 15 18 17 18 19 19 21
35 31 30 31 32 24 22 32 43 49 53 55 57 44 12 8 6 7 10 13 18 23 25 25 23 20 20 20 18 16 18 16 17 16 15 14 12 11 11 12 12 12 14
29 29 31 32 30 28 24 25 34 44 50 54 58 60 58 26 11 7 7 9 10 12 15 21 21 20 19 17 16 15 15 15 16 14 13 12 12 10 9 9 8 8 8
29 30 30 30 30 29 29 26 26 31 38 48 53 60 62 60 57 30 12 8 7 9 10 10 12 15 17 17 17 16 15 14 14 14 14 14 12 12 11 10 8 7 7
30 32 33 32 31 29 29 29 30 31 34 38 43 50 56 58 60 62 62 53 30 14 9 8 9 9 10 10 11 12 12 12 13 13 13 13 12 12 12 12 12 11 10
28 31 32 32 31 31 32 30 29 29 31 36 42 48 51 54 55 57 60 62 64 66 64 58 46 25 11 9 9 9 9 9 10 10 10 11 11 12 12 13 13 13 12
25 31 34 34 32 32 32 33 34 33 33 33 35 37 40 43 46 47 46 46 47 47 53 54 55 56 58 58 55 47 36 26 17 12 10 8 8 8 8 8 8 8 9
24 28 32 34 33 32 31 32 33 34 35 36 36 36 39 39 40 40 41 41 40 38 38 42 43 42 41 41 41 41 44 47 50 52 51 50 48 44 35 25 16 10 8
25 24 25 27 29 30 31 32 31 30 31 33 36 37 39 38 38 39 40 41 43 43 40 41 40 40 38 36 36 35 33 32 33 31 31 33 35 37 41 45 47 48 48
40 30 27 28 30 31 34 34 32 33 34 33 33 33 37 40 42 43 41 40 41 42 41 41 42 40 37 34 32 31 29 28 28 29 30 31 31 31 30 31 33 36 37
57 51 42 36 37 36 35 34 35 37 36 36 36 36 37 40 42 44 47 48 48 47 45 43 42 43 40 38 36 35 34 32 30 29 27 26 25 25 25 25 25 26 30
66 66 62 51 44 42 44 47 45 41 41 41 42 42 43 47 51 53 53 54 54 54 53 52 50 48 48 51 52 52 50 49 49 46 43 42 40 36 33 29 28 26 26
70 73 72 69 65 62 59 57 53 47 52 53 51 49 47 47 51 56 57 59 57 58 58 58 58 56 53 51 50 54 55 55 56 55 54 53 51 46 42 39 36 33 31
76 79 82 83 82 80 80 73 63 53 56 58 57 56 55 54 54 55 58 63 67 69 68 65 64 62 63 60 53 49 47 47 44 48 47 47 44 40 38 34 32 31 31
83 86 87 86 87 88 89 84 71 67 66 67 62 59 56 61 62 62 62 62 64 62 62 61 59 61 61 60 52 51 48 42 37 38 36 32 44 48 44 38 34 32 31
98 97 98 98 97 99 98 85 85 82 79 79 75 64 60 66 66 65 66 68 69 66 60 49 40 32 29 28 27 28 28 28 28 28 28 27 26 24 29 39 45 45 40
99 98 97 98 96 97 98 96 90 90 90 94 94 81 71 66 74 72 67 53 38 30 27 28 29 32 35 37 38 40 41 40 40 40 38 36 35 34 32 29 27 26 25
94 90 83 86 86 87 96 99 94 94 91 98 100 94 86 83 79 53 42 35 35 39 43 44 43 42 43 42 41 39 37 33 31 23 24 24 21 21 21 26 30 29 27

GFSMA_700_rhum_213.txt.gz
RH
15 18 20 22 26 27 35 37 33 29 27 26 30 30 7 9 15 11 10 10 11 11 12 14 16 17 18 20 19 20 18 74 99 100 88 97 85 87 88 85 86 85 85
20 24 27 28 30 34 38 36 33 31 29 29 35 29 6 9 16 12 10 10 11 12 13 15 17 20 23 40 29 36 30 74 85 100 99 99 98 94 86 88 88 89 86
24 28 32 33 36 39 40 40 38 35 30 33 39 29 5 13 17 14 12 13 13 15 16 19 20 22 23 28 68 76 36 52 83 100 100 99 94 100 88 86 89 87 85
31 33 35 38 40 41 41 41 37 32 34 39 46 27 5 15 16 16 16 15 15 18 19 21 25 28 26 30 65 74 52 53 66 77 99 98 100 98 99 85 92 84 82
25 30 34 37 39 42 42 39 32 28 35 45 51 29 6 13 17 15 17 17 18 20 22 23 26 29 31 44 31 66 72 37 63 90 100 96 89 100 83 100 96 86 74
29 32 38 41 42 43 40 34 25 26 36 47 53 36 8 7 15 14 16 18 19 21 22 23 24 26 26 32 65 75 43 52 90 74 85 100 97 95 77 74 69 53 41
30 32 35 39 39 36 33 27 21 30 43 52 54 45 13 5 7 12 14 18 19 21 23 23 24 25 25 25 28 27 22 33 36 50 54 97 75 39 30 24 18 13 12
27 31 31 31 28 27 30 20 22 34 44 52 56 53 22 9 5 7 12 17 20 22 23 25 27 28 29 32 33 30 32 31 32 27 32 30 32 33 25 22 23 19 19
25 24 25 26 27 28 28 23 23 34 43 50 54 56 46 18 9 6 7 11 15 21 25 27 27 26 25 25 26 26 28 26 27 32 27 29 24 24 21 22 20 20 20
24 23 25 26 27 28 29 28 25 30 40 47 52 56 59 57 25 10 7 6 10 12 16 22 25 24 22 20 21 22 20 20 23 24 20 21 19 19 18 17 18 16 17
24 23 24 27 28 28 28 28 28 28 33 42 50 55 58 60 60 48 17 9 7 8 10 11 14 20 21 20 19 18 19 19 18 17 17 15 14 13 12 12 10 9 9
26 25 26 28 29 29 28 28 28 29 30 33 40 47 54 59 60 62 61 49 26 12 8 8 10 10 11 14 16 16 16 16 16 16 15 15 14 13 12 10 9 7 8
28 26 26 28 30 30 30 30 31 31 30 30 32 36 43 49 53 58 63 67 67 63 54 33 16 10 9 10 10 10 11 13 14 14 14 14 14 13 13 13 12 11 10
32 28 24 27 30 31 30 30 30 31 33 33 33 34 35 36 41 48 51 53 54 55 56 57 60 60 53 33 17 11 10 10 10 10 10 11 11 12 12 13 13 12 12
38 35 25 22 24 27 29 30 30 30 30 31 32 34 35 35 38 36 37 41 43 45 47 44 43 42 42 47 53 54 50 45 32 18 14 10 9 9 9 9 10 10 11
42 41 34 26 23 22 23 24 25 26 29 30 30 30 32 33 34 37 42 43 40 38 41 44 43 39 37 35 33 34 37 40 44 47 48 48 46 43 40 30 20 15 12
44 46 48 44 34 28 28 30 29 28 28 29 30 30 31 31 31 32 35 38 43 45 43 44 43 42 39 35 33 32 31 30 30 31 31 31 33 36 38 42 45 48 49
45 49 54 56 55 50 41 36 35 37 41 45 43 39 36 34 35 35 34 36 38 40 41 43 46 46 44 41 40 37 35 32 30 29 28 27 28 29 29 30 30 30 29
53 53 58 62 63 63 61 52 46 45 47 50 50 44 46 46 44 41 39 39 40 42 43 42 42 46 48 46 44 42 41 40 37 35 33 31 30 28 26 26 25 24 25
64 62 64 64 64 65 65 63 61 60 62 62 61 57 50 55 55 53 49 45 43 44 45 49 49 48 49 52 54 54 54 55 54 50 47 46 43 41 39 37 35 32 29
67 67 66 66 68 69 71 72 71 72 77 77 77 70 55 54 58 59 58 55 52 51 51 51 52 52 52 52 54 57 60 61 61 61 58 55 52 51 49 46 43 40 38
68 68 72 76 82 85 86 88 89 87 86 85 86 74 63 58 59 61 60 62 62 61 62 64 66 63 64 61 56 57 60 60 58 56 54 54 52 51 49 45 43 40 38
80 81 84 91 96 98 98 97 94 92 92 88 91 84 72 71 72 68 64 63 65 64 63 62 61 64 62 62 59 59 56 55 55 51 45 44 46 48 49 50 50 49 47
94 95 97 97 97 98 97 97 93 85 81 81 74 71 78 82 88 83 76 70 68 70 69 71 68 70 70 67 58 45 34 29 28 29 30 30 30 30 29 29 28 27 26
80 90 90 84 85 87 94 91 97 87 80 73 82 79 88 90 98 97 84 77 75 75 81 75 61 46 33 28 28 31 36 39 41 41 39 34 29 26 27 29 31 33 31
86 93 95 92 94 88 86 77 68 72 76 85 92 96 98 96 100 97 93 93 91 73 40 30 28 28 35 42 43 39 36 32 28 21 18 21 17 15 12 10 12 13 13

GFSMA_700_rhum_219.txt.gz
RH
12 14 15 16 16 17 20 24 28 31 33 35 35 32 26 27 32 25 8 11 15 11 10 9 9 9 9 10 10 11 14 19 20 18 15 12 12 26 88 77 60 69 66
14 14 14 14 18 22 24 25 27 29 34 36 34 26 26 30 36 16 7 15 15 13 11 11 10 10 11 13 13 12 16 20 22 38 29 20 22 20 28 53 70 78 74
14 12 12 18 23 24 27 31 35 35 32 31 26 24 28 36 37 10 11 16 16 14 14 13 12 14 15 16 16 15 16 21 27 34 46 38 39 31 22 80 78 82 86
11 11 16 22 22 23 25 28 28 28 27 24 21 26 33 42 36 9 11 17 16 16 15 15 16 17 17 18 18 21 19 24 40 71 62 70 63 62 45 63 79 87 88
10 17 22 20 20 22 23 24 23 24 23 17 23 33 42 46 33 9 6 15 16 15 16 17 18 19 19 21 22 18 36 75 74 79 88 82 87 91 94 81 83 96 99
15 22 20 20 20 20 22 22 22 23 19 17 29 38 44 48 37 12 5 7 12 15 17 18 20 21 21 22 23 22 46 68 79 98 98 99 99 92 100 92 94 100 94
20 21 19 18 19 20 21 22 22 24 21 18 22 35 42 48 45 21 7 5 7 12 16 19 20 23 24 25 26 27 29 40 45 74 99 98 98 100 100 100 99 100 93
22 22 20 20 20 20 21 23 23 23 23 22 20 27 39 36 49 49 31 10 6 6 12 17 20 23 25 24 24 26 33 32 30 48 83 85 97 100 100 98 98 100 96
24 22 21 20 21 21 22 23 23 23 24 25 24 24 31 38 44 48 53 45 19 7 6 11 15 20 23 24 22 22 27 32 34 38 37 55 82 96 100 99 100 97 96
24 23 23 22 22 22 22 22 23 24 24 24 26 27 27 31 37 43 39 52 53 44 13 6 9 12 15 20 22 21 20 23 28 31 39 54 47 75 97 100 98 99 100
25 26 25 24 24 23 22 22 23 24 24 25 25 26 27 28 30 34 39 42 46 53 55 48 15 7 10 11 14 18 19 19 20 23 32 41 38 37 88 98 92 82 93
25 28 27 28 27 25 23 22 23 24 25 25 25 26 28 29 30 30 31 32 34 40 46 50 56 57 30 9 10 10 11 14 16 17 19 22 24 23 26 28 29 29 55
28 28 29 31 31 31 28 24 23 23 24 25 26 26 27 28 30 32 32 32 32 33 32 35 42 46 51 59 45 18 11 10 11 12 13 15 16 18 20 22 21 19 19
30 29 32 36 37 37 36 29 24 22 21 22 24 24 26 27 28 29 30 30 30 32 32 33 33 35 36 40 46 52 57 52 32 15 10 10 11 12 14 16 16 18 19
38 38 35 38 42 40 40 40 35 28 25 26 27 30 32 34 36 37 37 34 32 30 30 30 33 34 37 36 35 37 39 42 49 54 54 41 21 12 10 10 11 13 14
43 43 43 42 46 45 40 43 46 46 42 39 36 34 34 37 39 42 45 45 41 38 35 35 32 32 34 36 38 39 37 37 36 36 36 42 47 50 45 32 19 14 10
49 48 49 49 51 54 47 43 49 54 56 57 57 56 53 49 46 46 46 50 49 45 40 40 40 38 35 34 34 35 38 38 37 35 34 32 31 33 35 39 44 47 45
54 54 56 57 59 61 60 53 48 52 58 61 61 63 65 66 63 58 58 58 55 59 52 42 44 45 42 42 39 37 38 37 37 38 38 35 33 31 29 29 30 31 32
63 63 62 64 68 70 71 68 63 57 58 62 66 68 71 73 75 76 71 66 63 59 60 57 47 46 49 49 48 45 43 45 44 41 40 40 38 36 33 32 29 28 26
67 68 70 70 71 72 72 73 73 70 68 67 68 70 72 76 79 82 80 73 69 64 62 63 59 53 50 49 52 53 52 49 50 49 49 46 45 44 41 41 40 38 35
63 64 63 63 63 64 68 74 79 78 76 75 75 75 78 84 88 89 88 85 81 71 67 73 71 66 59 56 52 57 57 61 56 53 53 53 52 51 51 50 47 46 47
54 54 55 56 59 66 75 82 86 87 90 90 90 92 95 94 94 99 99 95 91 80 78 82 82 77 71 66 63 60 64 68 66 68 65 63 60 57 56 58 57 56 52
40 37 37 40 47 59 72 87 100 100 99 99 100 99 97 99 98 98 96 97 92 92 93 90 79 72 75 82 79 69 69 72 77 77 73 71 67 65 62 58 58 56 54
32 30 29 30 32 37 45 55 66 75 87 89 90 91 90 89 90 95 95 90 92 93 90 98 98 88 92 93 91 84 81 80 81 80 82 78 75 70 66 61 58 54 52
28 26 24 22 20 19 16 15 15 17 19 21 23 25 27 31 42 62 69 75 77 94 99 99 100 98 99 98 97 96 95 98 95 92 87 76 65 57 43 35 31 30 30
22 18 16 14 12 12 11 10 10 10 10 10 10 10 11 16 22 29 54 67 77 87 99 100 96 99 100 98 98 95 98 97 96 90 80 66 36 25 28 34 41 40 37

GFSMA_700_rhum_225.txt.gz
RH
6 8 8 6 11 15 15 15 15 16 17 18 19 20 21 20 21 22 26 29 18 9 13 14 12 10 9 9 9 8 9 10 10 10 9 10 12 15 18 19 15 14 55
7 8 7 9 16 15 14 14 16 16 17 17 18 18 17 18 21 26 31 24 10 12 16 15 13 11 10 10 9 10 11 11 11 12 13 14 15 18 21 24 24 18 28
8 9 8 16 16 14 14 14 15 15 16 18 18 15 19 23 28 32 34 22 8 13 17 16 15 14 13 12 12 13 13 13 14 15 18 38 42 29 31 35 28 26 19
8 8 10 18 16 14 14 15 16 15 16 17 18 15 20 28 32 37 36 21 8 9 16 16 15 16 15 16 15 15 16 16 17 19 33 42 42 52 52 55 46 39 30
10 9 16 18 15 14 14 15 16 16 16 17 17 17 16 23 32 39 39 25 11 6 6 9 13 15 17 17 18 20 21 21 20 20 47 42 70 80 68 56 62 54 43
10 12 18 17 15 14 14 15 15 17 17 17 18 19 18 20 24 30 39 44 36 15 6 5 7 12 18 19 20 23 24 24 24 20 22 64 78 74 74 76 67 65 43
12 17 19 16 16 15 15 14 16 18 18 18 18 18 19 20 22 25 28 38 45 44 28 9 5 6 12 18 20 24 24 22 20 24 55 60 75 72 62 63 99 75 85
18 20 20 15 16 16 16 15 16 17 18 18 19 18 19 20 21 22 23 24 35 45 49 46 26 9 6 11 15 19 24 23 22 20 27 32 57 82 59 100 99 97 99
21 21 20 15 16 17 17 17 16 17 18 18 19 19 20 20 20 21 23 25 25 27 33 42 50 49 37 12 9 11 14 21 23 21 21 24 33 52 59 92 98 94 99
22 22 22 17 16 19 20 20 20 18 19 19 19 20 20 21 22 22 22 23 23 26 25 25 28 33 42 54 52 25 10 11 14 19 20 19 24 33 34 41 94 99 99
22 22 22 19 19 20 21 21 23 24 23 21 21 21 21 22 22 22 24 24 23 23 24 25 26 26 26 29 32 47 56 34 11 11 14 17 18 22 30 29 44 99 100
22 23 22 22 24 25 26 26 27 29 29 28 26 24 22 21 22 21 22 22 22 23 24 24 24 24 25 27 27 29 31 35 53 42 12 11 13 16 20 26 30 78 94
23 25 26 27 31 33 34 34 31 32 34 36 35 30 26 25 25 26 26 25 24 27 26 28 30 29 27 26 26 26 29 32 32 35 50 39 17 11 14 18 24 27 54
26 28 30 32 36 38 39 41 40 38 39 38 40 39 36 35 34 34 36 36 34 32 30 29 31 35 36 34 33 30 29 30 31 32 34 34 47 46 20 11 14 18 23
29 33 36 37 39 42 46 48 48 47 46 46 41 42 46 49 52 56 57 57 57 51 43 42 39 35 35 38 38 36 36 33 32 32 32 35 34 34 46 47 21 12 14
37 41 44 44 47 50 54 55 56 54 53 55 55 50 46 49 54 59 62 63 64 64 60 52 50 49 46 41 39 40 40 37 37 35 34 32 34 34 33 35 45 46 22
47 52 54 55 56 60 62 63 63 61 60 60 62 62 61 60 56 56 58 62 65 68 67 63 60 60 61 55 47 44 43 42 41 40 38 36 33 33 36 34 33 35 42
61 63 62 61 61 64 66 68 67 66 63 61 60 58 59 64 67 69 72 72 71 74 75 72 70 65 65 67 63 54 52 48 46 46 42 41 40 36 34 36 36 33 32
61 62 60 59 61 64 66 66 64 62 62 60 57 55 54 56 58 67 75 79 82 85 87 87 82 78 72 75 75 73 66 62 57 52 49 45 44 42 41 37 37 38 35
52 51 52 54 55 54 54 55 55 55 57 57 58 59 60 63 66 71 77 87 97 98 100 99 96 96 91 86 86 82 78 74 63 61 58 54 51 47 45 45 41 39 42
58 58 58 57 56 54 53 51 49 47 45 43 42 42 44 48 51 54 58 65 87 97 100 98 93 92 94 96 96 97 94 87 75 70 68 66 61 56 50 47 49 47 46
58 56 53 50 48 45 43 42 40 39 37 35 33 30 28 26 24 22 21 22 25 31 47 87 98 97 92 96 98 96 97 93 88 86 82 75 73 64 60 56 53 54 54
49 47 45 44 43 41 39 37 34 32 30 28 25 22 20 16 13 12 12 13 13 13 13 15 18 26 35 46 66 88 91 93 91 97 94 86 83 71 70 67 62 60 62
42 39 37 36 35 33 30 26 21 18 15 12 10 8 7 7 6 7 6 6 7 8 10 12 14 17 26 23 30 49 58 64 62 63 83 88 87 83 86 78 72 67 66
36 34 32 28 24 20 17 14 11 10 8 7 7 7 9 9 10 11 11 10 9 8 11 16 14 14 15 22 58 97 96 98 80 78 93 92 84 87 94 90 88 80 75
30 25 20 15 10 8 8 8 8 8 8 10 11 14 19 24 25 23 21 21 20 22 41 49 50 48 35 21 23 41 80 100 100 94 90 100 90 98 98 97 96 94 88